SCP
3 3 3 2 2 1 1 1 1 1 2 2 2 2 2 1 1 1 1 1 1 1 1 1 1 1 1 1 1 0 0 0 0 0 0 0 0 0 0 0 0 0 0
3 3 3 2 2 1 1 1 1 2 3 3 3 2 2 1 1 1 1 1 1 1 1 1 1 1 1 1 1 1 0 0 0 0 0 0 0 0 0 0 0 0 0
4 3 3 2 2 2 2 2 2 2 3 3 3 2 1 1 1 1 1 1 1 0 1 1 1 1 1 1 1 1 0 0 0 0 0 0 0 0 0 0 0 0 0
3 3 2 2 3 3 3 3 2 2 2 2 2 2 1 1 1 1 1 0 0 0 0 1 1 1 1 1 1 0 0 0 0 0 0 0 0 0 0 0 0 0 0
3 3 3 3 3 4 4 4 2 2 1 1 1 1 1 1 1 0 0 0 0 0 0 1 1 1 1 1 1 1 0 0 0 0 0 0 0 0 0 0 0 1 1
2 3 3 3 4 5 5 4 2 2 1 1 1 1 1 1 1 1 1 1 1 0 0 1 1 1 1 1 1 1 0 0 0 0 1 1 1 0 0 0 0 1 1
2 3 3 3 4 5 5 3 2 2 2 1 1 1 2 1 1 1 1 1 1 1 1 1 1 1 1 1 1 1 0 0 0 0 0 1 1 1 0 0 0 1 1
2 3 3 4 4 5 5 4 3 3 3 2 2 2 2 2 1 1 1 1 1 1 1 1 1 1 1 1 1 1 1 0 0 0 0 0 1 1 0 0 0 0 0
3 3 4 4 5 5 5 5 5 5 4 3 2 2 2 2 2 2 1 1 1 1 1 1 1 1 1 1 1 1 1 1 0 0 0 0 0 1 0 0 0 1 1
4 4 4 5 6 6 5 6 6 5 4 4 3 4 3 3 3 3 2 2 1 1 1 1 1 1 1 1 1 1 1 1 1 0 0 0 0 0 0 0 1 1 1
4 4 4 5 6 6 6 5 5 5 5 5 5 5 4 3 4 4 4 3 2 1 1 1 1 1 1 2 2 2 2 1 1 1 1 1 1 1 1 1 1 1 1
4 4 5 6 6 7 6 5 5 5 7 7 7 6 5 4 4 5 5 4 3 1 1 1 1 1 1 2 2 2 2 2 1 1 1 1 1 1 1 1 1 1 1
4 4 5 5 6 7 7 7 7 8 8 7 6 6 5 4 4 5 6 5 3 1 1 1 1 2 2 2 2 2 2 2 2 1 1 1 1 1 1 1 1 1 1
4 4 5 4 4 5 7 9 9 8 7 5 5 5 4 4 4 4 5 5 3 1 1 2 2 2 3 3 2 2 2 2 2 2 2 1 1 1 1 1 1 1 1
4 4 4 3 3 4 6 8 8 7 5 4 4 4 4 3 3 3 3 3 2 1 1 2 2 3 3 3 3 3 2 2 2 2 2 2 2 1 1 1 1 1 1
4 4 3 3 3 4 5 6 7 6 5 5 4 4 4 3 3 3 3 3 2 2 2 2 2 3 3 3 3 3 3 3 3 3 2 2 2 2 1 1 1 1 1
5 5 4 3 3 4 5 6 7 7 6 5 5 4 3 3 3 4 4 4 3 3 3 2 2 3 3 3 2 2 3 3 3 3 3 4 4 3 1 1 1 1 1
5 5 5 4 4 4 5 6 7 8 7 6 5 4 3 3 3 4 5 5 4 4 4 4 3 3 3 2 2 2 2 3 3 3 4 5 6 4 2 1 1 1 1
4 4 5 5 5 5 6 7 9 9 8 7 6 4 3 3 3 4 5 6 6 5 5 5 5 4 4 3 2 2 2 2 3 3 3 4 4 3 2 2 2 2 1
3 4 5 5 6 7 8 9 10 9 8 7 6 5 4 4 4 4 4 6 6 6 6 6 6 5 4 3 2 1 2 2 2 2 2 2 2 1 1 2 2 2 2
4 5 5 5 6 8 10 11 11 9 8 7 7 6 5 5 5 4 4 4 5 5 5 5 5 5 4 3 2 1 1 2 2 2 1 1 1 1 1 1 2 3 2
5 5 5 5 7 9 11 11 11 10 9 8 7 7 6 6 6 5 4 3 3 4 4 4 4 4 3 3 2 1 1 1 2 2 2 2 1 0 0 1 1 2 1
6 5 5 6 9 11 12 12 12 12 11 10 9 9 9 8 7 6 4 3 2 3 3 3 3 3 3 3 3 1 1 1 2 2 2 2 1 0 0 0 0 1 1
7 6 5 8 12 14 13 13 13 14 12 11 11 10 9 8 7 6 4 2 2 2 2 2 3 3 3 3 3 2 1 1 1 1 1 1 1 1 0 0 0 1 1
7 6 6 8 12 13 13 12 11 12 13 12 11 9 7 6 5 4 3 2 2 2 2 2 2 3 3 3 3 3 2 2 2 1 1 1 1 1 1 1 1 1 1
7 6 5 7 9 10 10 9 8 11 13 13 10 8 6 5 4 3 2 2 2 2 1 2 2 2 3 3 2 2 3 3 2 1 1 1 1 1 1 1 1 1 1
Wind_Speed
10 11 11 12 10 9 8 8 7 6 5 3 3 3 2 2 2 2 3 3 3 3 3 2 2 2 2 1 1 1 1 0 1 2 1 2 1 1 1 1 2 2 2
10 11 11 11 11 10 9 8 8 7 6 4 3 3 3 2 2 2 2 3 3 3 3 3 2 2 1 1 1 1 1 0 1 2 2 2 3 2 1 0 1 1 1
15 14 13 12 12 11 10 9 8 7 6 5 3 3 2 2 1 1 1 1 3 3 2 3 2 2 2 2 1 1 2 1 0 1 3 2 1 1 2 1 1 0 1
13 13 13 13 14 12 11 9 9 7 6 6 5 6 4 3 3 2 2 2 2 3 3 3 3 2 2 2 1 1 1 2 1 1 0 2 3 2 1 2 2 1 1
15 15 15 14 13 12 11 9 8 7 7 6 7 6 4 3 2 2 3 2 1 2 3 3 3 2 2 2 1 1 1 1 1 1 0 1 1 1 2 1 2 2 1
14 13 12 10 10 10 10 9 9 8 7 7 6 7 6 5 4 4 3 2 1 1 2 3 2 2 2 2 1 1 1 1 1 1 1 1 1 1 2 2 2 2 2
12 13 13 12 12 12 11 11 10 9 8 8 8 7 7 7 7 5 4 3 2 1 2 2 2 2 2 2 2 2 1 1 1 1 0 1 1 1 2 2 1 1 2
10 13 14 14 13 13 12 11 11 9 9 9 8 7 7 6 5 5 4 4 3 3 3 3 3 3 2 2 2 1 1 1 1 0 0 0 0 1 1 2 2 0 2
9 10 12 13 13 14 14 13 12 9 9 8 7 6 7 6 6 5 4 3 3 3 3 3 3 3 2 2 2 1 1 1 1 1 0 0 0 0 1 1 2 2 1
7 8 9 10 11 12 12 12 11 11 9 8 7 7 6 6 5 5 4 4 4 3 4 3 3 3 2 2 2 1 1 1 1 1 0 0 1 0 0 1 1 2 2
7 7 7 7 8 8 10 10 10 9 8 8 6 6 5 5 5 5 5 5 4 4 4 4 4 3 2 2 2 2 2 1 1 0 0 1 1 0 1 0 1 1 1
8 8 7 7 7 8 9 10 10 9 9 8 7 7 6 6 6 5 5 5 4 4 5 5 4 4 3 3 3 2 2 2 2 1 1 1 1 1 1 0 0 1 1
7 7 7 7 8 8 9 9 9 10 9 9 8 7 6 7 6 6 5 5 5 4 5 5 5 4 4 3 3 3 3 3 3 2 2 2 1 1 1 1 1 1 0
7 8 7 7 7 8 8 8 8 8 8 8 8 8 8 7 7 6 5 5 5 5 5 5 5 5 4 4 3 3 3 3 2 2 2 2 2 3 2 1 1 1 0
8 8 7 6 6 7 7 8 8 8 8 8 8 8 7 6 5 5 5 5 5 6 5 5 4 4 4 4 4 4 4 3 3 3 3 3 3 3 3 2 2 2 1
9 9 8 8 8 8 8 8 8 8 8 8 8 7 6 6 6 6 6 6 5 5 5 5 5 5 4 5 7 5 4 3 3 3 3 3 2 3 3 3 3 3 3
7 8 9 8 7 8 8 8 7 7 8 8 7 6 7 6 6 6 6 6 5 5 5 5 4 4 4 6 6 7 4 3 3 3 3 3 2 2 2 2 2 2 3
6 6 6 6 6 6 6 6 6 7 7 7 6 6 7 6 6 5 6 5 4 5 5 5 5 4 4 4 5 5 4 3 3 3 3 3 2 2 1 1 1 2 3
6 6 6 6 6 7 7 7 6 6 6 6 7 7 7 6 6 6 6 5 4 4 4 4 4 4 3 4 4 5 2 2 2 3 2 3 3 3 1 1 1 3 3
3 5 5 5 6 6 7 8 7 7 7 7 7 6 6 7 6 6 5 4 4 4 4 3 4 4 4 4 4 5 2 2 2 2 2 3 3 2 2 2 2 3 4
4 4 6 6 6 6 7 7 7 8 7 6 6 5 6 6 6 4 4 4 4 4 4 4 3 4 4 4 5 5 3 3 2 2 3 3 4 4 4 4 4 5 4
4 4 5 5 5 6 7 7 6 6 5 6 6 5 5 5 5 4 4 4 4 4 4 3 3 2 3 4 4 5 5 4 4 3 3 3 4 5 5 4 4 4 2
4 3 5 5 4 5 7 7 5 4 5 6 6 5 5 4 4 5 5 4 4 4 3 3 3 3 2 3 4 4 4 4 3 3 3 4 4 4 4 4 4 2 1
4 3 4 5 4 4 5 5 5 5 6 6 5 5 5 4 4 3 4 4 4 4 4 4 4 3 2 2 2 2 2 3 3 2 2 3 3 3 3 3 2 2 2
3 3 4 5 5 4 3 3 4 5 5 5 5 5 4 5 4 3 3 4 4 6 6 5 4 4 4 5 5 4 3 3 3 2 0 0 1 1 1 1 1 1 1
3 3 3 4 4 4 4 3 4 5 6 4 4 4 4 4 3 3 1 0 1 3 6 6 5 4 6 5 6 5 5 5 4 3 1 2 2 2 2 2 1 1 1
Wind_Direction
174 163 160 160 160 159 157 159 157 162 150 145 145 142 148 145 144 164 157 148 144 139 134 135 125 119 118 132 121 117 107 29 101 86 31 352 340 191 203 198 178 192 204
168 167 164 165 168 167 166 163 163 165 160 160 161 155 150 158 160 156 152 154 146 146 148 140 149 141 125 94 83 114 114 261 121 124 101 21 353 342 301 228 177 178 186
175 175 172 173 170 172 172 170 169 168 164 157 139 122 98 83 83 117 157 166 147 142 141 145 146 141 137 140 143 136 130 148 299 134 141 142 206 307 327 318 296 200 188
177 176 176 176 177 178 173 168 169 168 166 158 150 151 156 166 187 177 165 159 151 147 147 145 140 140 137 143 165 123 133 135 161 303 106 156 156 144 305 323 320 279 214
182 180 179 181 179 173 170 169 169 170 167 166 163 161 163 171 163 151 146 158 154 154 153 147 140 144 148 150 128 98 121 139 160 170 142 69 74 116 144 259 302 320 293
185 182 179 176 172 169 170 169 170 176 173 172 171 168 166 164 156 158 160 168 164 158 157 154 150 152 153 156 149 138 126 127 122 139 129 135 147 184 158 193 243 269 282
181 179 176 178 172 169 173 178 176 180 180 177 180 178 172 170 173 173 172 168 168 176 189 171 164 160 162 158 144 130 124 133 133 158 162 152 191 184 163 161 220 259 281
181 184 182 179 174 172 175 177 178 181 183 183 185 182 174 174 179 179 174 179 187 192 185 176 173 169 159 154 144 135 162 129 145 178 155 162 240 156 160 165 157 280 306
178 183 184 178 175 176 179 178 176 177 182 184 179 180 178 175 177 177 171 178 182 180 172 166 162 160 154 153 145 154 180 142 160 194 169 147 284 128 161 152 150 154 235
169 170 176 180 181 182 180 175 173 179 182 183 184 181 176 173 170 166 172 179 181 175 162 158 153 151 149 146 143 147 162 146 206 196 145 319 287 317 15 146 141 147 167
173 177 177 177 176 174 174 174 176 176 181 184 182 177 173 170 166 171 179 180 174 168 166 164 156 156 162 159 155 174 170 184 245 268 164 261 272 313 339 52 93 128 150
172 176 173 167 164 165 169 172 175 178 180 181 181 177 176 173 176 180 182 180 175 175 174 169 163 172 177 174 171 192 193 203 227 236 215 268 286 300 288 232 253 227 184
165 163 166 167 168 167 168 171 172 175 175 178 176 174 177 180 183 185 180 181 177 173 171 168 174 181 182 181 189 193 204 219 225 218 211 228 209 273 270 247 259 255 281
162 162 171 172 172 169 167 168 171 171 172 173 174 179 185 186 186 181 179 180 176 175 178 177 181 184 185 183 190 196 204 223 231 223 216 213 205 224 237 244 244 233 317
158 166 169 171 173 170 169 169 169 167 169 171 176 185 184 176 174 177 181 181 181 183 181 177 185 187 188 195 193 202 206 216 231 237 230 221 216 224 227 230 214 200 199
167 170 172 170 173 174 171 169 169 167 163 167 179 180 175 173 179 185 184 182 186 182 175 183 188 195 206 205 201 198 212 210 213 229 241 236 233 250 256 256 234 209 200
175 173 173 172 176 179 169 168 171 162 164 172 175 175 175 176 182 185 180 184 187 183 184 189 191 203 215 211 209 207 200 209 215 219 228 245 242 249 259 281 290 272 245
181 178 173 169 168 161 152 153 154 159 168 172 174 177 176 179 181 180 186 190 185 184 189 193 193 196 217 212 209 201 198 208 216 212 210 209 234 249 228 259 297 288 273
171 176 174 168 158 155 154 150 155 161 164 172 178 181 178 179 180 186 192 190 184 191 196 189 187 195 217 206 191 179 179 204 233 231 216 206 221 251 242 221 282 302 300
144 155 151 140 144 162 154 151 161 166 179 185 184 181 178 179 187 194 193 186 180 186 182 188 190 192 209 211 194 180 181 202 241 251 236 228 226 242 228 202 222 265 277
128 134 138 143 157 157 150 156 167 184 189 180 176 179 180 183 184 183 180 172 171 168 176 187 199 201 208 212 204 187 187 200 219 233 242 246 242 254 250 230 220 236 251
121 128 136 154 159 152 147 156 184 195 177 170 173 177 179 181 171 165 170 167 164 169 182 189 207 217 217 211 208 196 203 201 202 222 232 241 241 248 251 245 247 254 250
132 130 148 156 159 162 158 165 190 177 169 172 180 177 175 177 168 167 171 169 171 179 184 189 209 227 229 230 217 201 211 218 217 228 232 248 245 246 255 260 265 253 216
141 140 151 156 164 172 171 182 180 170 165 171 176 175 173 176 174 172 173 176 184 186 188 196 208 217 220 224 221 222 225 235 239 248 270 274 262 242 252 268 262 230 215
152 147 156 165 172 172 173 184 173 161 163 169 173 175 174 172 169 169 182 192 203 196 191 198 197 197 219 228 211 204 215 219 222 197 174 267 285 276 281 276 273 261 244
143 141 155 168 176 176 179 183 181 168 162 166 172 172 168 168 164 161 148 11 199 209 203 200 197 211 217 208 203 205 211 211 190 161 175 214 227 230 231 232 253 247 232